Weather History for St-Etienne Boutheon, France

Change the Weather History Date:

Monday, November 18, 2013

  Actual Average Record
Temperature  
Mean Temperature 38 °F -  
Max Temperature 44 °F 45 °F 60 °F (1997)
Min Temperature 32 °F 35 °F 17 °F (2007)
Degree Days  
Heating Degree Days 27    
Moisture  
Dew Point 36 °F    
Average Humidity 95    
Maximum Humidity 100    
Minimum Humidity 87    
Precipitation  
Precipitation 0.00 in - - ()
Sea Level Pressure  
Sea Level Pressure 29.86 in    
Wind  
Wind Speed 1 mph ()    
Max Wind Speed 4 mph    
Max Gust Speed -    
Visibility 0.7 miles    
Events Fog , Rain    
Averages and records for this station are not official NWS values.
T = Trace of Precipitation, MM = Missing Value Source: Averaged Metar Reports

Daily Weather History Graph

Daily Weather History Graph

Search for Another Location

Airport:

Trip Planner

Search our weather history database for the weather conditions in past years. The results will help you decide how hot, cold, wet, or windy it might be!

Date:

Astronomy

Nov. 18, 2013 Rise Set
Actual Time 7:46 AM CET 5:09 PM CET
Civil Twilight 7:13 AM CET 5:41 PM CET
Nautical Twilight 6:37 AM CET 6:18 PM CET
Astronomical Twilight 6:02 AM CET 6:53 PM CET
Moon 5:59 PM CET (11/18) 8:21 AM CET (11/18)
Length of Visible Light 10h 28m
Length of Day
9h 23m
Full, 99% of the Moon is Illuminated
Nov 18
Full
Nov 25
Last Quarter
Dec 3
New
Dec 9
First Quarter
Dec 17
Full

Hourly Weather History & Observations

Time (CET) Temp. Windchill Dew Point Humidity Pressure Visibility Wind Dir Wind Speed Gust Speed Precip Events Conditions
12:00 AM 35.6 °F - 33.8 °F 93% 30.04 in 0.0 mi SSW 1.2 mph - N/A Fog Fog
12:30 AM 35.6 °F - 33.8 °F 93% 30.01 in 0.1 mi Calm Calm - N/A Fog Fog
1:00 AM 33.8 °F 30.8 °F 32.0 °F 93% 30.01 in 0.0 mi North 3.5 mph - N/A Fog Fog
1:30 AM 32.0 °F - 32.0 °F 100% 29.98 in 0.0 mi NNE 1.2 mph - N/A Fog Fog
2:00 AM 32.0 °F - 32.0 °F 100% 29.98 in 0.1 mi Variable 1.2 mph - N/A Fog Fog
2:30 AM 32.0 °F - 32.0 °F 100% 29.98 in 0.1 mi Variable 2.3 mph - N/A Fog Fog
3:00 AM 32.0 °F - 32.0 °F 100% 29.95 in 0.1 mi Variable 1.2 mph - N/A Fog Fog
3:30 AM 33.8 °F - 32.0 °F 93% 29.95 in 0.1 mi Calm Calm - N/A Fog Fog
4:00 AM 32.0 °F - 32.0 °F 100% 29.95 in 0.0 mi SE 1.2 mph - N/A Fog Fog
4:30 AM 32.0 °F - 32.0 °F 100% 29.92 in 0.1 mi Calm Calm - N/A Fog Fog
5:00 AM 32.0 °F - 30.2 °F 93% 29.92 in 0.1 mi Calm Calm - N/A Fog Light Freezing Fog
5:30 AM 32.0 °F - 32.0 °F 100% 29.92 in 0.1 mi Calm Calm - N/A Fog Fog
6:00 AM 32.0 °F - 32.0 °F 100% 29.92 in 0.1 mi Calm Calm - N/A Fog Fog
6:30 AM 32.0 °F - 32.0 °F 100% 29.92 in 0.1 mi East 2.3 mph - N/A Fog Fog
7:00 AM 32.0 °F - 32.0 °F 100% 29.89 in 0.1 mi Calm Calm - N/A Fog Fog
7:30 AM 32.0 °F - 32.0 °F 100% 29.89 in 0.5 mi Calm Calm - N/A Fog Fog
8:00 AM 33.8 °F - 32.0 °F 93% 29.89 in 0.7 mi Calm Calm - N/A   Mostly Cloudy
8:30 AM 33.8 °F - 33.8 °F 100% 29.89 in 1.2 mi North 2.3 mph - N/A   Mostly Cloudy
9:00 AM 33.8 °F - 33.8 °F 100% 29.89 in 1.6 mi Variable 1.2 mph - N/A   Mostly Cloudy
9:30 AM 35.6 °F - 33.8 °F 93% 29.89 in 1.9 mi Calm Calm - N/A   Mostly Cloudy
10:00 AM 35.6 °F - 35.6 °F 100% 29.89 in 2.2 mi Calm Calm - N/A   Mostly Cloudy
10:30 AM 37.4 °F - 35.6 °F 93% 29.89 in 1.2 mi Variable 2.3 mph - N/A   Mostly Cloudy
11:00 AM 37.4 °F - 35.6 °F 93% 29.89 in 1.2 mi Variable 1.2 mph - N/A   Mostly Cloudy
11:30 AM 39.2 °F - 37.4 °F 93% 29.89 in 1.2 mi Variable 1.2 mph - N/A   Mostly Cloudy
12:00 PM 39.2 °F - 37.4 °F 93% 29.86 in 1.2 mi Calm Calm - N/A   Mostly Cloudy
12:30 PM 41.0 °F - 39.2 °F 93% 29.86 in 1.6 mi Calm Calm - N/A   Mostly Cloudy
1:00 PM 41.0 °F - 39.2 °F 93% 29.83 in 1.6 mi Variable 1.2 mph - N/A   Mostly Cloudy
1:30 PM 42.8 °F - 39.2 °F 87% 29.83 in 1.9 mi Calm Calm - N/A   Mostly Cloudy
2:00 PM 42.8 °F - 39.2 °F 87% 29.83 in 1.9 mi Calm Calm - N/A Rain Light Rain
2:30 PM 42.8 °F - 41.0 °F 93% 29.80 in 2.5 mi Variable 1.2 mph - N/A Rain Light Rain
3:00 PM 42.8 °F - 41.0 °F 93% 29.80 in 2.5 mi Variable 2.3 mph - N/A Rain Light Rain
3:30 PM 44.6 °F - 41.0 °F 87% 29.80 in 1.2 mi Variable 2.3 mph - N/A Rain Light Rain
4:00 PM 42.8 °F - 41.0 °F 93% 29.80 in 1.2 mi Calm Calm - N/A   Mostly Cloudy
4:30 PM 42.8 °F - 41.0 °F 93% 29.80 in 1.2 mi Calm Calm - N/A   Mostly Cloudy
5:00 PM 42.8 °F - 41.0 °F 93% 29.77 in 1.2 mi North 2.3 mph - N/A   Mostly Cloudy
5:30 PM 42.8 °F - 41.0 °F 93% 29.77 in 0.9 mi Variable 1.2 mph - N/A   Mostly Cloudy
6:00 PM 42.8 °F - 41.0 °F 93% 29.77 in 0.4 mi Calm Calm - N/A Fog Fog
6:30 PM 42.8 °F - 41.0 °F 93% 29.77 in 0.1 mi ESE 1.2 mph - N/A Fog Fog
7:00 PM 41.0 °F - 41.0 °F 100% 29.77 in 0.0 mi Calm Calm - N/A Fog Fog
7:30 PM 41.0 °F - 39.2 °F 93% 29.77 in 0.1 mi Calm Calm - N/A Fog Fog
8:00 PM 39.2 °F - 37.4 °F 93% 29.77 in 0.0 mi Calm Calm - N/A Fog Fog
8:30 PM 41.0 °F - 39.2 °F 93% 29.77 in 0.0 mi Variable 2.3 mph - N/A Fog Fog
9:00 PM 41.0 °F - 39.2 °F 93% 29.77 in 0.1 mi North 1.2 mph - N/A Fog Fog
9:30 PM 41.0 °F - 39.2 °F 93% 29.74 in 0.1 mi Calm Calm - N/A Fog Fog
10:00 PM 39.2 °F - 39.2 °F 100% 29.74 in 0.2 mi Calm Calm - N/A Fog Fog
10:30 PM 39.2 °F - 39.2 °F 100% 29.74 in 0.3 mi Calm Calm - N/A Fog Fog
11:00 PM 41.0 °F - 39.2 °F 93% 29.74 in 0.2 mi Calm Calm - N/A Fog Fog
11:30 PM 41.0 °F - 39.2 °F 93% 29.74 in 0.2 mi North 2.3 mph - N/A Fog Fog